Previsão horária em Abranka

Hoje, 9 Maio, Domingo

Tempo Temperatura Precipitação Vento Pressão Humidade
00:00 +5°C° 0 mm 1 m/s 714 mmHg 94%
01:00 +5°C° 0 mm 1 m/s 713 mmHg 93%
02:00 +5°C° 0 mm 1 m/s 714 mmHg 92%
03:00 +5°C° 0 mm 1 m/s 714 mmHg 93%
04:00 +5°C° 0 mm 1 m/s 714 mmHg 93%
05:00 +5°C° 0 mm 1 m/s 714 mmHg 94%
06:00 +5°C° 0 mm 1 m/s 714 mmHg 94%
07:00 +5°C° 0 mm 0 m/s 715 mmHg 97%
08:00 +7°C° 0 mm 1 m/s 715 mmHg 96%
09:00 +8°C° 0 mm 2 m/s 716 mmHg 91%
10:00 +8°C° 0 mm 4 m/s 716 mmHg 89%
11:00 +9°C° 0 mm 5 m/s 716 mmHg 93%
12:00 +9°C° 0 mm 5 m/s 717 mmHg 92%
13:00 +10°C° 0 mm 5 m/s 717 mmHg 90%
14:00 +10°C° 0 mm 5 m/s 717 mmHg 84%
15:00 +12°C° 0 mm 5 m/s 717 mmHg 97%
16:00 +12°C° 0 mm 5 m/s 716 mmHg 90%
17:00 +12°C° 0 mm 5 m/s 716 mmHg 88%
18:00 +12°C° 0 mm 4 m/s 716 mmHg 89%
19:00 +11°C° 0 mm 4 m/s 716 mmHg 92%
20:00 +10°C° 0 mm 3 m/s 716 mmHg 91%
21:00 +9°C° 0 mm 2 m/s 716 mmHg 83%
22:00 +9°C° 0 mm 2 m/s 715 mmHg 80%
23:00 +9°C° 0 mm 2 m/s 715 mmHg 80%

Amanhã, 10 Maio, Segunda-feira

Tempo Temperatura Precipitação Vento Pressão Humidade
00:00 +9°C° 0 mm 2 m/s 715 mmHg 86%
01:00 +8°C° 0 mm 2 m/s 715 mmHg 88%
02:00 +8°C° 0 mm 2 m/s 715 mmHg 90%
03:00 +8°C° 0 mm 2 m/s 715 mmHg 91%
04:00 +8°C° 0 mm 2 m/s 714 mmHg 91%
05:00 +9°C° 0 mm 1 m/s 714 mmHg 88%
06:00 +9°C° 0 mm 1 m/s 714 mmHg 86%
07:00 +10°C° 0 mm 1 m/s 715 mmHg 88%
08:00 +12°C° 0 mm 1 m/s 715 mmHg 91%
09:00 +14°C° 0 mm 1 m/s 715 mmHg 86%
10:00 +15°C° 0 mm 2 m/s 716 mmHg 82%
11:00 +16°C° 0 mm 3 m/s 716 mmHg 82%
12:00 +17°C° 0 mm 4 m/s 716 mmHg 83%
13:00 +17°C° 0 mm 4 m/s 716 mmHg 81%
14:00 +18°C° 0 mm 4 m/s 716 mmHg 83%
15:00 +18°C° 0 mm 4 m/s 715 mmHg 86%
16:00 +18°C° 0 mm 4 m/s 715 mmHg 86%
17:00 +18°C° 0 mm 3 m/s 715 mmHg 86%
18:00 +18°C° 0 mm 3 m/s 715 mmHg 86%
19:00 +17°C° 0 mm 2 m/s 715 mmHg 91%
20:00 +16°C° 0 mm 1 m/s 715 mmHg 90%
21:00 +15°C° 0 mm 1 m/s 714 mmHg 87%
22:00 +14°C° 0 mm 1 m/s 714 mmHg 84%
23:00 +14°C° 0 mm 1 m/s 714 mmHg 81%

Depois de amanhã, 11 Maio, Terça-feira

Tempo Temperatura Precipitação Vento Pressão Humidade
00:00 +14°C° 0 mm 1 m/s 714 mmHg 79%
01:00 +13°C° 0 mm 1 m/s 714 mmHg 80%
02:00 +13°C° 0 mm 1 m/s 714 mmHg 81%
03:00 +13°C° 0 mm 1 m/s 713 mmHg 82%
04:00 +13°C° 0 mm 1 m/s 713 mmHg 83%
05:00 +12°C° 0 mm 1 m/s 713 mmHg 85%
06:00 +12°C° 0 mm 1 m/s 713 mmHg 86%
07:00 +13°C° 0 mm 1 m/s 713 mmHg 88%
08:00 +13°C° 0 mm 0 m/s 713 mmHg 94%
09:00 +16°C° 0 mm 1 m/s 713 mmHg 89%
10:00 +18°C° 0 mm 1 m/s 714 mmHg 87%
11:00 +18°C° 0 mm 2 m/s 714 mmHg 84%
12:00 +19°C° 0 mm 2 m/s 714 mmHg 81%
13:00 +19°C° 0 mm 2 m/s 714 mmHg 78%
14:00 +20°C° 0 mm 2 m/s 713 mmHg 75%
15:00 +20°C° 0 mm 2 m/s 713 mmHg 76%
16:00 +20°C° 0 mm 2 m/s 712 mmHg 77%
17:00 +21°C° 0 mm 1 m/s 712 mmHg 80%
18:00 +21°C° 0 mm 1 m/s 711 mmHg 81%
19:00 +18°C° 0 mm 0 m/s 711 mmHg 90%
20:00 +19°C° 0 mm 1 m/s 710 mmHg 94%
21:00 +16°C° 0.3 mm 1 m/s 710 mmHg 100%
22:00 +16°C° 0 mm 2 m/s 710 mmHg 100%
23:00 +15°C° 0 mm 2 m/s 709 mmHg 97%

12 Maio, Quarta-feira

Tempo Temperatura Precipitação Vento Pressão Humidade
00:00 +15°C° 0 mm 1 m/s 709 mmHg 93%
01:00 +14°C° 0 mm 1 m/s 709 mmHg 93%
02:00 +14°C° 0 mm 1 m/s 708 mmHg 93%
03:00 +14°C° 0 mm 1 m/s 708 mmHg 93%
04:00 +13°C° 0 mm 1 m/s 707 mmHg 92%
05:00 +13°C° 0 mm 1 m/s 707 mmHg 91%
06:00 +13°C° 0 mm 1 m/s 707 mmHg 91%
07:00 +14°C° 0 mm 1 m/s 707 mmHg 94%
08:00 +15°C° 0 mm 2 m/s 707 mmHg 91%
09:00 +16°C° 0 mm 2 m/s 707 mmHg 86%
10:00 +17°C° 0 mm 2 m/s 707 mmHg 83%
11:00 +18°C° 0 mm 3 m/s 707 mmHg 77%
12:00 +18°C° 0 mm 2 m/s 707 mmHg 77%
13:00 +18°C° 0 mm 2 m/s 706 mmHg 77%
14:00 +19°C° 0 mm 2 m/s 705 mmHg 79%
15:00 +18°C° 0.3 mm 2 m/s 705 mmHg 92%
16:00 +17°C° 2.2 mm 3 m/s 704 mmHg 95%
17:00 +16°C° 3.4 mm 3 m/s 704 mmHg 99%
18:00 +15°C° 1.2 mm 4 m/s 703 mmHg 94%
19:00 +15°C° 0.2 mm 4 m/s 703 mmHg 91%
20:00 +13°C° 0 mm 3 m/s 703 mmHg 93%
21:00 +13°C° 0 mm 3 m/s 702 mmHg 93%
22:00 +13°C° 0 mm 2 m/s 702 mmHg 92%
23:00 +13°C° 0 mm 2 m/s 702 mmHg 91%

13 Maio, Quinta-feira

Tempo Temperatura Precipitação Vento Pressão Humidade
00:00 +12°C° 0 mm 2 m/s 701 mmHg 91%
01:00 +12°C° 0 mm 2 m/s 701 mmHg 91%
02:00 +12°C° 0 mm 2 m/s 701 mmHg 92%
03:00 +12°C° 0.1 mm 2 m/s 701 mmHg 95%
04:00 +10°C° 0.1 mm 2 m/s 700 mmHg 99%
05:00 +10°C° 0.1 mm 2 m/s 700 mmHg 100%
06:00 +10°C° 1 mm 2 m/s 700 mmHg 100%
07:00 +12°C° 1 mm 2 m/s 700 mmHg 100%
08:00 +13°C° 0.6 mm 1 m/s 700 mmHg 100%
09:00 +14°C° 0 mm 2 m/s 700 mmHg 99%
10:00 +13°C° 0 mm 3 m/s 700 mmHg 98%
11:00 +14°C° 0.5 mm 3 m/s 700 mmHg 96%
12:00 +14°C° 0 mm 4 m/s 700 mmHg 96%
13:00 +16°C° 0 mm 3 m/s 700 mmHg 95%
14:00 +16°C° 0 mm 2 m/s 700 mmHg 94%
15:00 +17°C° 0.1 mm 4 m/s 700 mmHg 94%
16:00 +15°C° 0.2 mm 4 m/s 699 mmHg 94%
17:00 +15°C° 0.2 mm 4 m/s 700 mmHg 97%
18:00 +16°C° 0 mm 3 m/s 700 mmHg 94%
19:00 +14°C° 0.1 mm 3 m/s 700 mmHg 98%
20:00 +15°C° 1.1 mm 2 m/s 700 mmHg 100%
21:00 +13°C° 0 mm 3 m/s 700 mmHg 100%
22:00 +12°C° 0.3 mm 3 m/s 700 mmHg 100%
23:00 +12°C° 0.2 mm 4 m/s 700 mmHg 100%

14 Maio, Sexta-feira

Tempo Temperatura Precipitação Vento Pressão Humidade
00:00 +12°C° 0.5 mm 3 m/s 700 mmHg 100%
01:00 +13°C° 0 mm 2 m/s 700 mmHg 100%
02:00 +12°C° 0 mm 3 m/s 700 mmHg 100%
03:00 +11°C° 0 mm 3 m/s 700 mmHg 100%
04:00 +11°C° 0 mm 3 m/s 700 mmHg 100%
05:00 +11°C° 0 mm 4 m/s 701 mmHg 100%
06:00 +11°C° 0.4 mm 4 m/s 701 mmHg 100%
07:00 +11°C° 0 mm 4 m/s 701 mmHg 100%
08:00 +10°C° 0 mm 4 m/s 701 mmHg 100%
09:00 +10°C° 0 mm 5 m/s 701 mmHg 100%
10:00 +10°C° 0 mm 5 m/s 702 mmHg 100%
11:00 +10°C° 0 mm 5 m/s 702 mmHg 100%
12:00 +13°C° 0 mm 6 m/s 703 mmHg 99%
13:00 +13°C° 1 mm 6 m/s 703 mmHg 100%
14:00 +14°C° 0.4 mm 6 m/s 703 mmHg 99%
15:00 +14°C° 0 mm 5 m/s 703 mmHg 96%
16:00 +14°C° 0.2 mm 5 m/s 702 mmHg 98%
17:00 +14°C° 0 mm 5 m/s 702 mmHg 95%
18:00 +13°C° 0 mm 5 m/s 702 mmHg 100%
19:00 +13°C° 0.3 mm 3 m/s 703 mmHg 100%
20:00 +13°C° 0.9 mm 3 m/s 703 mmHg 100%
21:00 +12°C° 0.1 mm 3 m/s 703 mmHg 100%
22:00 +12°C° 0 mm 4 m/s 703 mmHg 100%
23:00 +11°C° 0 mm 4 m/s 703 mmHg 100%
Mostrar mais

Necessitamos do seu Consentimento

A Meteoprog e os seus Fornecedores de Serviços podem armazenar e aceder a dados pessoais como cookies, identificadores do dispositivo ou outras tecnologias semelhantes existentes no seu dispositivo e processar estes dados para personalizar conteúdos e anúncios, assim como funcionalidades nas redes sociais e análise de tráfego.

  • Armazenar e/ou aceder a informações no seu dispositivo

    Os cookies, identificadores do dispositivo ou outras informações podem ser armazenados ou acedidos no seu dispositivo, para os fins acima indicados.

  • Anúncios e conteúdos personalizados, medição de anúncios e conteúdos, dados sobre o público-alvo e desenvolvimento de produtos

    Os anúncios e os conteúdos podem ser personalizados com base num perfil. Podem ser adicionados dados adicionais para uma maior personalização dos anúncios e dos conteúdos. A eficácia dos anúncios e dos conteúdos pode ser medida. Podem ser obtidas informações sobre o público que visualizou os anúncios e os conteúdos. Estes dados podem ser usados para desenvolver ou melhorar sistemas, softwares ou a experiência do utilizador.

Ao clicar em "Eu concordo”, permitirá o uso de cookies, identificadores do dispositivo e web beacons mencionados ou outras tecnologias semelhantes. As configurações do navegador do seu dispositivo podem ser alteradas.

Para certos fins, podem ser invocados interesses legítimos ao invés de consentimento. Pode ler mais informação sobre este assunto na nossa Política de Privacidade e Cookies.